QPF
0.00 0.00 0.00 0.00 0.00 0.01 0.01 0.01 0.00 0.00 0.00 0.00 0.00 0.00 0.00 0.00 0.00 0.00 0.00 0.00 0.00 0.00 0.00 0.00 0.00 0.00 0.00 0.00 0.00 0.00 0.00 0.00 0.00 0.00 0.00 0.00 0.00 0.00 0.00 0.00 0.00 0.00 0.00 0.00 0.00 0.00 0.00 0.00 0.00
0.00 0.00 0.00 0.00 0.00 0.00 0.01 0.02 0.00 0.00 0.00 0.00 0.00 0.00 0.00 0.00 0.00 0.00 0.00 0.00 0.00 0.00 0.00 0.00 0.00 0.00 0.00 0.00 0.00 0.00 0.00 0.00 0.00 0.00 0.00 0.00 0.00 0.00 0.00 0.00 0.00 0.00 0.00 0.00 0.00 0.00 0.00 0.00 0.00
0.00 0.00 0.00 0.00 0.00 0.00 0.00 0.01 0.00 0.00 0.00 0.00 0.00 0.00 0.00 0.00 0.00 0.00 0.00 0.00 0.00 0.00 0.00 0.00 0.00 0.00 0.00 0.00 0.00 0.00 0.00 0.00 0.00 0.00 0.00 0.00 0.00 0.00 0.00 0.00 0.00 0.00 0.00 0.00 0.00 0.00 0.00 0.00 0.00
0.00 0.00 0.00 0.00 0.00 0.00 0.00 0.01 0.00 0.00 0.00 0.00 0.00 0.00 0.00 0.00 0.00 0.00 0.00 0.00 0.00 0.00 0.00 0.00 0.00 0.00 0.00 0.00 0.00 0.00 0.00 0.00 0.00 0.00 0.00 0.00 0.00 0.00 0.00 0.00 0.00 0.00 0.00 0.00 0.00 0.00 0.00 0.00 0.00
0.00 0.00 0.00 0.00 0.01 0.01 0.00 0.00 0.00 0.00 0.00 0.00 0.00 0.00 0.00 0.00 0.00 0.00 0.00 0.00 0.00 0.00 0.00 0.00 0.00 0.00 0.00 0.00 0.00 0.00 0.00 0.00 0.00 0.00 0.00 0.00 0.00 0.00 0.00 0.00 0.00 0.01 0.01 0.00 0.00 0.00 0.00 0.00 0.00
0.00 0.00 0.00 0.00 0.01 0.01 0.01 0.00 0.00 0.00 0.00 0.00 0.00 0.00 0.00 0.00 0.00 0.00 0.00 0.00 0.00 0.00 0.00 0.00 0.00 0.00 0.00 0.00 0.00 0.00 0.00 0.00 0.00 0.00 0.00 0.00 0.00 0.01 0.01 0.01 0.01 0.00 0.01 0.01 0.00 0.00 0.00 0.01 0.00
0.00 0.00 0.00 0.00 0.00 0.00 0.01 0.01 0.00 0.00 0.00 0.00 0.00 0.00 0.00 0.00 0.00 0.00 0.00 0.00 0.00 0.00 0.00 0.00 0.00 0.00 0.00 0.00 0.00 0.00 0.00 0.00 0.00 0.00 0.00 0.00 0.00 0.01 0.02 0.03 0.02 0.02 0.02 0.01 0.01 0.00 0.00 0.01 0.01
0.00 0.00 0.00 0.00 0.00 0.00 0.01 0.02 0.01 0.00 0.00 0.00 0.00 0.00 0.00 0.00 0.00 0.00 0.00 0.00 0.00 0.00 0.00 0.00 0.00 0.00 0.00 0.00 0.00 0.00 0.00 0.00 0.00 0.00 0.00 0.00 0.00 0.01 0.02 0.02 0.02 0.04 0.05 0.04 0.02 0.01 0.00 0.00 0.00
0.00 0.00 0.00 0.00 0.00 0.00 0.00 0.01 0.00 0.00 0.00 0.00 0.00 0.00 0.00 0.00 0.00 0.00 0.00 0.00 0.00 0.00 0.00 0.00 0.00 0.00 0.00 0.00 0.00 0.00 0.00 0.00 0.00 0.00 0.00 0.00 0.00 0.00 0.00 0.02 0.04 0.04 0.04 0.04 0.03 0.01 0.00 0.00 0.00
0.00 0.00 0.00 0.00 0.00 0.00 0.00 0.00 0.00 0.00 0.00 0.00 0.00 0.00 0.00 0.00 0.00 0.00 0.00 0.00 0.00 0.00 0.00 0.00 0.00 0.00 0.00 0.00 0.00 0.00 0.00 0.00 0.00 0.00 0.00 0.00 0.00 0.00 0.00 0.02 0.07 0.09 0.09 0.08 0.07 0.05 0.02 0.02 0.02
0.00 0.00 0.00 0.00 0.00 0.00 0.00 0.00 0.00 0.00 0.00 0.00 0.00 0.00 0.00 0.00 0.00 0.00 0.00 0.00 0.00 0.00 0.00 0.00 0.00 0.00 0.00 0.00 0.00 0.00 0.00 0.00 0.00 0.00 0.00 0.00 0.00 0.00 0.01 0.01 0.03 0.05 0.08 0.05 0.09 0.09 0.05 0.04 0.03
0.00 0.00 0.00 0.00 0.00 0.00 0.00 0.00 0.00 0.00 0.00 0.00 0.01 0.01 0.00 0.00 0.00 0.00 0.00 0.00 0.00 0.00 0.00 0.00 0.00 0.00 0.00 0.00 0.00 0.00 0.00 0.00 0.00 0.00 0.00 0.00 0.00 0.00 0.00 0.01 0.01 0.01 0.01 0.02 0.04 0.04 0.04 0.04 0.02
0.00 0.00 0.00 0.00 0.00 0.00 0.00 0.00 0.00 0.00 0.00 0.00 0.01 0.01 0.01 0.00 0.00 0.00 0.00 0.00 0.00 0.00 0.00 0.00 0.00 0.00 0.00 0.00 0.00 0.00 0.00 0.00 0.00 0.00 0.00 0.00 0.00 0.00 0.00 0.00 0.00 0.00 0.01 0.01 0.01 0.02 0.04 0.05 0.02
0.00 0.00 0.00 0.00 0.00 0.00 0.00 0.00 0.00 0.00 0.00 0.00 0.00 0.01 0.01 0.00 0.00 0.00 0.00 0.00 0.00 0.00 0.00 0.00 0.00 0.00 0.00 0.00 0.00 0.00 0.00 0.00 0.00 0.00 0.00 0.00 0.00 0.00 0.00 0.00 0.00 0.00 0.00 0.00 0.01 0.03 0.05 0.05 0.05
0.00 0.00 0.00 0.00 0.00 0.00 0.00 0.00 0.00 0.00 0.00 0.00 0.00 0.00 0.00 0.00 0.00 0.00 0.00 0.00 0.00 0.00 0.00 0.00 0.00 0.00 0.00 0.00 0.00 0.00 0.00 0.00 0.00 0.00 0.00 0.00 0.00 0.00 0.00 0.00 0.00 0.00 0.00 0.00 0.01 0.03 0.04 0.06 0.10
0.00 0.00 0.00 0.00 0.00 0.00 0.00 0.00 0.00 0.00 0.00 0.00 0.00 0.00 0.00 0.00 0.00 0.00 0.00 0.00 0.00 0.00 0.00 0.00 0.00 0.00 0.00 0.00 0.00 0.00 0.00 0.00 0.00 0.00 0.00 0.00 0.00 0.00 0.00 0.01 0.00 0.01 0.01 0.01 0.01 0.04 0.06 0.08 0.08
0.00 0.00 0.00 0.00 0.00 0.00 0.00 0.00 0.00 0.00 0.00 0.00 0.00 0.00 0.00 0.00 0.00 0.00 0.00 0.00 0.00 0.00 0.00 0.00 0.00 0.00 0.00 0.00 0.00 0.00 0.00 0.00 0.00 0.00 0.01 0.01 0.01 0.01 0.01 0.01 0.01 0.00 0.01 0.00 0.01 0.01 0.02 0.02 0.03
0.00 0.00 0.00 0.00 0.00 0.00 0.00 0.00 0.00 0.00 0.00 0.00 0.00 0.00 0.00 0.00 0.00 0.00 0.00 0.00 0.00 0.00 0.00 0.00 0.00 0.00 0.00 0.00 0.01 0.01 0.01 0.01 0.01 0.01 0.02 0.02 0.02 0.02 0.01 0.00 0.01 0.01 0.00 0.00 0.00 0.00 0.01 0.01 0.01
0.00 0.00 0.00 0.00 0.00 0.00 0.00 0.00 0.00 0.00 0.01 0.01 0.00 0.01 0.01 0.01 0.02 0.02 0.01 0.01 0.01 0.01 0.01 0.00 0.00 0.01 0.01 0.03 0.05 0.07 0.07 0.06 0.05 0.04 0.04 0.03 0.03 0.03 0.02 0.01 0.01 0.01 0.00 0.00 0.00 0.00 0.00 0.00 0.02
0.00 0.00 0.00 0.00 0.00 0.00 0.00 0.00 0.00 0.00 0.01 0.02 0.04 0.05 0.05 0.05 0.04 0.04 0.03 0.02 0.03 0.02 0.02 0.02 0.04 0.08 0.08 0.10 0.14 0.16 0.17 0.14 0.10 0.08 0.07 0.06 0.06 0.06 0.04 0.02 0.01 0.00 0.00 0.00 0.00 0.00 0.00 0.00 0.02
0.00 0.00 0.00 0.00 0.00 0.00 0.00 0.00 0.00 0.01 0.03 0.06 0.09 0.13 0.16 0.16 0.13 0.10 0.07 0.06 0.05 0.04 0.07 0.10 0.16 0.21 0.22 0.27 0.31 0.31 0.29 0.24 0.18 0.16 0.16 0.14 0.10 0.05 0.03 0.01 0.00 0.00 0.00 0.00 0.00 0.00 0.01 0.01 0.01
0.00 0.00 0.00 0.00 0.00 0.00 0.00 0.00 0.00 0.01 0.02 0.04 0.06 0.10 0.18 0.21 0.19 0.19 0.17 0.18 0.18 0.19 0.25 0.35 0.43 0.48 0.52 0.52 0.49 0.44 0.38 0.33 0.31 0.26 0.20 0.12 0.06 0.02 0.01 0.00 0.00 0.00 0.00 0.00 0.00 0.00 0.01 0.02 0.01
0.00 0.00 0.00 0.00 0.00 0.00 0.00 0.00 0.00 0.00 0.00 0.02 0.04 0.08 0.13 0.17 0.21 0.26 0.30 0.36 0.38 0.40 0.48 0.58 0.67 0.71 0.72 0.69 0.59 0.47 0.39 0.32 0.25 0.19 0.11 0.05 0.02 0.01 0.00 0.00 0.00 0.00 0.00 0.00 0.00 0.01 0.02 0.03 0.03
0.00 0.00 0.00 0.00 0.00 0.00 0.00 0.00 0.00 0.00 0.00 0.01 0.03 0.04 0.07 0.12 0.17 0.23 0.31 0.39 0.45 0.50 0.54 0.56 0.59 0.63 0.65 0.63 0.55 0.43 0.32 0.23 0.14 0.08 0.04 0.02 0.01 0.00 0.00 0.00 0.00 0.00 0.00 0.00 0.00 0.01 0.02 0.04 0.06
0.00 0.00 0.00 0.00 0.00 0.00 0.00 0.00 0.00 0.00 0.00 0.00 0.01 0.02 0.04 0.07 0.11 0.17 0.23 0.31 0.39 0.44 0.48 0.49 0.47 0.45 0.39 0.33 0.28 0.23 0.17 0.11 0.07 0.04 0.02 0.01 0.00 0.00 0.00 0.00 0.00 0.00 0.00 0.00 0.00 0.00 0.02 0.04 0.07
0.00 0.00 0.00 0.00 0.00 0.00 0.00 0.00 0.00 0.00 0.00 0.00 0.00 0.00 0.02 0.04 0.06 0.11 0.19 0.26 0.33 0.37 0.42 0.43 0.42 0.38 0.31 0.24 0.19 0.17 0.13 0.09 0.06 0.03 0.01 0.00 0.00 0.00 0.00 0.00 0.00 0.00 0.00 0.00 0.00 0.00 0.01 0.03 0.05
0.00 0.00 0.00 0.00 0.00 0.00 0.00 0.00 0.00 0.00 0.00 0.00 0.00 0.00 0.00 0.01 0.02 0.05 0.09 0.14 0.18 0.22 0.26 0.31 0.36 0.38 0.35 0.31 0.25 0.18 0.12 0.08 0.04 0.02 0.00 0.00 0.00 0.00 0.00 0.00 0.00 0.00 0.00 0.00 0.00 0.00 0.01 0.04 0.08
0.00 0.00 0.00 0.00 0.00 0.00 0.00 0.00 0.00 0.00 0.00 0.00 0.00 0.00 0.00 0.00 0.00 0.01 0.02 0.04 0.06 0.09 0.14 0.19 0.24 0.25 0.26 0.26 0.24 0.17 0.10 0.05 0.02 0.00 0.00 0.00 0.00 0.00 0.00 0.00 0.00 0.00 0.00 0.00 0.00 0.00 0.01 0.05 0.09
0.00 0.00 0.00 0.00 0.00 0.00 0.00 0.00 0.00 0.00 0.00 0.00 0.00 0.00 0.00 0.00 0.00 0.01 0.03 0.06 0.09 0.13 0.18 0.22 0.24 0.23 0.21 0.18 0.15 0.10 0.06 0.03 0.01 0.00 0.00 0.00 0.00 0.00 0.00 0.00 0.00 0.00 0.00 0.00 0.00 0.00 0.01 0.02 0.04
0.00 0.00 0.00 0.00 0.00 0.00 0.00 0.00 0.00 0.00 0.00 0.00 0.00 0.00 0.00 0.00 0.01 0.02 0.06 0.13 0.19 0.21 0.22 0.25 0.24 0.23 0.22 0.18 0.13 0.10 0.05 0.02 0.00 0.00 0.00 0.00 0.00 0.00 0.00 0.00 0.00 0.00 0.00 0.00 0.00 0.00 0.00 0.00 0.01
MSLP
1009.57 1010.41 1011.37 1012.30 1013.05 1013.53 1013.70 1013.60 1013.34 1013.02 1012.77 1012.66 1012.70 1012.87 1013.09 1013.26 1013.32 1013.22 1012.99 1012.68 1012.40 1012.23 1012.23 1012.43 1012.79 1013.26 1013.74 1014.16 1014.46 1014.64 1014.71 1014.73 1014.77 1014.87 1015.05 1015.32 1015.63 1015.93 1016.18 1016.35 1016.42 1016.43 1016.40 1016.38 1016.40 1016.47 1016.58 1016.73 1016.87
1009.98 1010.94 1011.96 1012.86 1013.51 1013.83 1013.81 1013.50 1013.03 1012.54 1012.14 1011.92 1011.91 1012.04 1012.25 1012.45 1012.54 1012.51 1012.36 1012.15 1011.97 1011.90 1011.99 1012.26 1012.69 1013.20 1013.71 1014.15 1014.48 1014.69 1014.80 1014.88 1014.97 1015.11 1015.32 1015.59 1015.89 1016.15 1016.36 1016.47 1016.51 1016.49 1016.45 1016.43 1016.46 1016.55 1016.67 1016.82 1016.96
1010.50 1011.54 1012.56 1013.39 1013.91 1014.04 1013.82 1013.32 1012.68 1012.05 1011.56 1011.29 1011.24 1011.37 1011.59 1011.81 1011.94 1011.96 1011.87 1011.74 1011.64 1011.64 1011.81 1012.14 1012.61 1013.14 1013.67 1014.13 1014.48 1014.71 1014.87 1014.98 1015.11 1015.29 1015.52 1015.78 1016.05 1016.28 1016.44 1016.51 1016.52 1016.49 1016.45 1016.46 1016.51 1016.62 1016.76 1016.91 1017.04
1011.13 1012.20 1013.16 1013.87 1014.22 1014.17 1013.76 1013.10 1012.33 1011.63 1011.10 1010.82 1010.78 1010.93 1011.17 1011.42 1011.58 1011.63 1011.59 1011.50 1011.46 1011.52 1011.73 1012.10 1012.58 1013.13 1013.65 1014.10 1014.46 1014.70 1014.88 1015.03 1015.18 1015.38 1015.62 1015.87 1016.12 1016.31 1016.43 1016.48 1016.48 1016.45 1016.44 1016.47 1016.56 1016.70 1016.86 1017.01 1017.13
1011.80 1012.84 1013.71 1014.27 1014.43 1014.20 1013.63 1012.85 1012.03 1011.30 1010.79 1010.55 1010.56 1010.75 1011.03 1011.29 1011.47 1011.54 1011.52 1011.47 1011.46 1011.55 1011.78 1012.16 1012.64 1013.16 1013.66 1014.09 1014.42 1014.66 1014.85 1015.00 1015.18 1015.39 1015.63 1015.87 1016.10 1016.27 1016.38 1016.41 1016.41 1016.41 1016.43 1016.50 1016.62 1016.78 1016.95 1017.09 1017.20
1012.47 1013.43 1014.16 1014.54 1014.53 1014.13 1013.44 1012.60 1011.76 1011.08 1010.64 1010.47 1010.55 1010.80 1011.11 1011.40 1011.59 1011.66 1011.65 1011.61 1011.61 1011.72 1011.96 1012.32 1012.77 1013.26 1013.71 1014.09 1014.39 1014.61 1014.77 1014.93 1015.11 1015.33 1015.57 1015.81 1016.03 1016.19 1016.29 1016.34 1016.35 1016.37 1016.42 1016.52 1016.66 1016.83 1017.00 1017.14 1017.22
1013.04 1013.89 1014.45 1014.66 1014.47 1013.94 1013.18 1012.33 1011.53 1010.93 1010.59 1010.52 1010.68 1010.99 1011.34 1011.63 1011.82 1011.90 1011.89 1011.85 1011.87 1011.98 1012.21 1012.55 1012.97 1013.40 1013.79 1014.12 1014.36 1014.54 1014.68 1014.83 1015.02 1015.24 1015.48 1015.73 1015.95 1016.12 1016.22 1016.28 1016.30 1016.34 1016.40 1016.51 1016.66 1016.82 1016.98 1017.09 1017.15
1013.47 1014.17 1014.56 1014.59 1014.26 1013.64 1012.85 1012.02 1011.29 1010.79 1010.57 1010.60 1010.84 1011.20 1011.57 1011.87 1012.06 1012.13 1012.13 1012.11 1012.13 1012.25 1012.48 1012.80 1013.18 1013.55 1013.88 1014.15 1014.34 1014.47 1014.60 1014.74 1014.92 1015.15 1015.41 1015.67 1015.90 1016.07 1016.18 1016.23 1016.26 1016.29 1016.35 1016.45 1016.58 1016.72 1016.85 1016.94 1016.97
1013.73 1014.27 1014.49 1014.36 1013.92 1013.23 1012.43 1011.65 1011.02 1010.63 1010.51 1010.63 1010.93 1011.32 1011.70 1012.00 1012.18 1012.26 1012.27 1012.27 1012.32 1012.46 1012.70 1013.01 1013.36 1013.69 1013.96 1014.17 1014.31 1014.42 1014.52 1014.66 1014.85 1015.09 1015.37 1015.64 1015.87 1016.05 1016.15 1016.19 1016.20 1016.21 1016.24 1016.31 1016.41 1016.52 1016.62 1016.67 1016.68
1013.83 1014.20 1014.26 1014.00 1013.47 1012.75 1011.97 1011.25 1010.71 1010.41 1010.37 1010.55 1010.87 1011.27 1011.64 1011.92 1012.10 1012.19 1012.23 1012.27 1012.37 1012.55 1012.81 1013.12 1013.45 1013.75 1013.99 1014.16 1014.27 1014.35 1014.45 1014.59 1014.79 1015.05 1015.34 1015.62 1015.86 1016.03 1016.12 1016.14 1016.11 1016.09 1016.08 1016.10 1016.16 1016.23 1016.30 1016.33 1016.32
1013.81 1014.03 1013.95 1013.58 1012.98 1012.25 1011.50 1010.85 1010.37 1010.14 1010.14 1010.34 1010.66 1011.03 1011.37 1011.63 1011.81 1011.91 1011.99 1012.08 1012.24 1012.46 1012.76 1013.10 1013.44 1013.73 1013.95 1014.09 1014.19 1014.26 1014.36 1014.51 1014.73 1015.00 1015.30 1015.59 1015.82 1015.97 1016.04 1016.03 1015.97 1015.90 1015.85 1015.83 1015.85 1015.89 1015.93 1015.96 1015.94
1013.74 1013.83 1013.63 1013.17 1012.54 1011.81 1011.10 1010.49 1010.06 1009.86 1009.87 1010.04 1010.32 1010.64 1010.93 1011.16 1011.33 1011.45 1011.56 1011.72 1011.93 1012.22 1012.56 1012.93 1013.28 1013.58 1013.80 1013.94 1014.04 1014.12 1014.23 1014.38 1014.61 1014.89 1015.20 1015.48 1015.71 1015.85 1015.89 1015.85 1015.76 1015.66 1015.57 1015.52 1015.51 1015.54 1015.58 1015.60 1015.59
1013.72 1013.68 1013.38 1012.88 1012.22 1011.51 1010.82 1010.25 1009.85 1009.65 1009.62 1009.75 1009.96 1010.20 1010.42 1010.61 1010.76 1010.89 1011.04 1011.24 1011.50 1011.84 1012.22 1012.62 1012.99 1013.31 1013.54 1013.70 1013.81 1013.90 1014.02 1014.19 1014.42 1014.70 1014.99 1015.27 1015.48 1015.61 1015.64 1015.59 1015.48 1015.36 1015.26 1015.20 1015.19 1015.22 1015.26 1015.30 1015.30
1013.79 1013.66 1013.29 1012.75 1012.09 1011.40 1010.75 1010.20 1009.81 1009.58 1009.51 1009.55 1009.67 1009.83 1009.98 1010.11 1010.23 1010.36 1010.52 1010.74 1011.03 1011.40 1011.80 1012.22 1012.61 1012.94 1013.19 1013.37 1013.51 1013.62 1013.75 1013.92 1014.14 1014.40 1014.68 1014.93 1015.13 1015.25 1015.28 1015.23 1015.14 1015.04 1014.95 1014.91 1014.91 1014.95 1015.01 1015.05 1015.06
1013.98 1013.77 1013.37 1012.81 1012.18 1011.52 1010.90 1010.38 1009.98 1009.72 1009.58 1009.55 1009.58 1009.64 1009.72 1009.79 1009.87 1009.98 1010.12 1010.34 1010.62 1010.98 1011.38 1011.79 1012.18 1012.52 1012.80 1013.00 1013.16 1013.29 1013.42 1013.59 1013.79 1014.02 1014.26 1014.49 1014.67 1014.78 1014.83 1014.81 1014.76 1014.70 1014.65 1014.64 1014.67 1014.73 1014.80 1014.85 1014.86
1014.26 1014.01 1013.59 1013.06 1012.46 1011.86 1011.29 1010.79 1010.39 1010.09 1009.89 1009.78 1009.73 1009.71 1009.71 1009.73 1009.76 1009.82 1009.93 1010.10 1010.35 1010.66 1011.02 1011.40 1011.78 1012.12 1012.41 1012.64 1012.82 1012.96 1013.10 1013.25 1013.42 1013.61 1013.80 1013.99 1014.15 1014.27 1014.34 1014.37 1014.37 1014.37 1014.38 1014.41 1014.47 1014.55 1014.62 1014.67 1014.65
1014.58 1014.31 1013.91 1013.43 1012.91 1012.37 1011.86 1011.40 1011.00 1010.68 1010.43 1010.26 1010.13 1010.05 1009.99 1009.95 1009.93 1009.93 1009.98 1010.08 1010.25 1010.49 1010.78 1011.11 1011.45 1011.78 1012.08 1012.33 1012.53 1012.69 1012.83 1012.96 1013.09 1013.23 1013.37 1013.52 1013.65 1013.77 1013.87 1013.94 1014.01 1014.07 1014.14 1014.22 1014.30 1014.39 1014.44 1014.46 1014.42
1014.84 1014.60 1014.27 1013.88 1013.45 1013.01 1012.58 1012.16 1011.78 1011.44 1011.16 1010.93 1010.75 1010.61 1010.50 1010.41 1010.34 1010.28 1010.26 1010.27 1010.35 1010.48 1010.68 1010.93 1011.23 1011.53 1011.84 1012.11 1012.34 1012.52 1012.66 1012.77 1012.86 1012.95 1013.04 1013.13 1013.24 1013.35 1013.47 1013.59 1013.70 1013.82 1013.94 1014.05 1014.14 1014.21 1014.24 1014.22 1014.13
1015.01 1014.83 1014.61 1014.34 1014.05 1013.73 1013.38 1013.02 1012.65 1012.30 1011.98 1011.71 1011.49 1011.31 1011.16 1011.03 1010.91 1010.80 1010.70 1010.62 1010.59 1010.61 1010.70 1010.87 1011.11 1011.39 1011.69 1011.99 1012.25 1012.46 1012.61 1012.71 1012.77 1012.81 1012.84 1012.89 1012.96 1013.06 1013.18 1013.32 1013.48 1013.63 1013.77 1013.89 1013.98 1014.02 1014.00 1013.93 1013.80
1015.05 1014.98 1014.91 1014.81 1014.68 1014.49 1014.23 1013.92 1013.57 1013.20 1012.84 1012.52 1012.25 1012.03 1011.85 1011.70 1011.55 1011.39 1011.22 1011.06 1010.92 1010.83 1010.82 1010.90 1011.07 1011.32 1011.62 1011.94 1012.23 1012.48 1012.65 1012.76 1012.80 1012.80 1012.79 1012.80 1012.83 1012.90 1013.02 1013.17 1013.34 1013.50 1013.64 1013.75 1013.80 1013.80 1013.73 1013.61 1013.44
1014.99 1015.08 1015.19 1015.29 1015.33 1015.27 1015.11 1014.84 1014.48 1014.07 1013.65 1013.27 1012.95 1012.68 1012.48 1012.30 1012.13 1011.94 1011.72 1011.49 1011.26 1011.08 1010.97 1010.96 1011.07 1011.29 1011.58 1011.91 1012.24 1012.52 1012.74 1012.86 1012.91 1012.90 1012.87 1012.84 1012.84 1012.88 1012.98 1013.11 1013.26 1013.41 1013.53 1013.60 1013.61 1013.55 1013.44 1013.27 1013.07
1014.91 1015.20 1015.52 1015.81 1016.02 1016.10 1016.01 1015.75 1015.36 1014.88 1014.38 1013.91 1013.51 1013.19 1012.95 1012.76 1012.57 1012.37 1012.13 1011.85 1011.56 1011.30 1011.10 1011.01 1011.06 1011.23 1011.51 1011.85 1012.21 1012.53 1012.79 1012.95 1013.03 1013.03 1012.99 1012.95 1012.93 1012.95 1013.02 1013.12 1013.24 1013.35 1013.42 1013.44 1013.39 1013.29 1013.13 1012.94 1012.73
1014.91 1015.41 1015.94 1016.43 1016.80 1016.98 1016.92 1016.65 1016.19 1015.60 1014.98 1014.40 1013.91 1013.52 1013.24 1013.03 1012.85 1012.65 1012.40 1012.10 1011.77 1011.45 1011.19 1011.03 1011.00 1011.12 1011.36 1011.70 1012.07 1012.43 1012.74 1012.95 1013.07 1013.12 1013.11 1013.07 1013.05 1013.05 1013.09 1013.16 1013.23 1013.28 1013.30 1013.26 1013.16 1013.01 1012.82 1012.61 1012.41
1015.09 1015.77 1016.50 1017.16 1017.66 1017.90 1017.85 1017.52 1016.95 1016.24 1015.47 1014.75 1014.15 1013.68 1013.35 1013.13 1012.95 1012.77 1012.54 1012.25 1011.90 1011.55 1011.22 1010.99 1010.89 1010.95 1011.14 1011.45 1011.83 1012.21 1012.56 1012.83 1013.01 1013.11 1013.14 1013.14 1013.13 1013.13 1013.15 1013.18 1013.21 1013.21 1013.16 1013.06 1012.91 1012.72 1012.51 1012.30 1012.12
1015.47 1016.33 1017.21 1017.99 1018.56 1018.82 1018.73 1018.31 1017.62 1016.76 1015.84 1014.98 1014.25 1013.70 1013.33 1013.09 1012.93 1012.78 1012.58 1012.31 1011.97 1011.60 1011.23 1010.94 1010.76 1010.74 1010.87 1011.13 1011.49 1011.87 1012.25 1012.57 1012.82 1012.98 1013.08 1013.13 1013.16 1013.17 1013.18 1013.19 1013.17 1013.12 1013.02 1012.87 1012.68 1012.46 1012.23 1012.03 1011.88
1016.05 1017.03 1018.01 1018.85 1019.43 1019.67 1019.51 1018.98 1018.16 1017.14 1016.08 1015.08 1014.25 1013.63 1013.21 1012.97 1012.83 1012.72 1012.57 1012.34 1012.02 1011.64 1011.25 1010.90 1010.66 1010.55 1010.60 1010.80 1011.11 1011.48 1011.87 1012.23 1012.53 1012.77 1012.93 1013.05 1013.12 1013.16 1013.18 1013.17 1013.13 1013.04 1012.90 1012.71 1012.48 1012.24 1012.01 1011.82 1011.68
1016.74 1017.77 1018.78 1019.62 1020.16 1020.33 1020.08 1019.44 1018.49 1017.35 1016.17 1015.07 1014.16 1013.49 1013.05 1012.81 1012.70 1012.64 1012.54 1012.36 1012.07 1011.71 1011.30 1010.92 1010.61 1010.43 1010.40 1010.52 1010.77 1011.11 1011.49 1011.87 1012.21 1012.51 1012.74 1012.92 1013.04 1013.12 1013.16 1013.15 1013.09 1012.99 1012.82 1012.61 1012.37 1012.11 1011.88 1011.69 1011.57
1017.42 1018.44 1019.40 1020.17 1020.63 1020.69 1020.34 1019.60 1018.56 1017.34 1016.09 1014.95 1014.00 1013.31 1012.87 1012.65 1012.58 1012.56 1012.52 1012.39 1012.16 1011.82 1011.43 1011.02 1010.67 1010.43 1010.32 1010.37 1010.55 1010.83 1011.19 1011.57 1011.93 1012.27 1012.56 1012.79 1012.96 1013.08 1013.15 1013.16 1013.11 1012.99 1012.83 1012.61 1012.36 1012.11 1011.87 1011.69 1011.57
1017.95 1018.87 1019.73 1020.37 1020.70 1020.66 1020.21 1019.40 1018.32 1017.08 1015.83 1014.69 1013.76 1013.09 1012.69 1012.50 1012.47 1012.50 1012.51 1012.45 1012.26 1011.97 1011.60 1011.21 1010.84 1010.56 1010.39 1010.37 1010.49 1010.72 1011.03 1011.39 1011.76 1012.11 1012.43 1012.70 1012.92 1013.08 1013.17 1013.21 1013.18 1013.09 1012.93 1012.73 1012.50 1012.25 1012.03 1011.84 1011.71
1018.21 1019.00 1019.69 1020.17 1020.36 1020.19 1019.68 1018.84 1017.77 1016.58 1015.39 1014.33 1013.47 1012.86 1012.50 1012.36 1012.37 1012.44 1012.50 1012.49 1012.36 1012.13 1011.80 1011.44 1011.08 1010.79 1010.60 1010.54 1010.60 1010.78 1011.04 1011.37 1011.72 1012.07 1012.40 1012.69 1012.93 1013.12 1013.25 1013.32 1013.32 1013.26 1013.14 1012.97 1012.77 1012.55 1012.34 1012.16 1012.02
Thickness
5829 5828 5826 5817 5802 5788 5786 5796 5803 5810 5814 5824 5827 5820 5813 5807 5801 5799 5818 5826 5823 5817 5811 5807 5804 5801 5797 5794 5791 5790 5788 5786 5785 5783 5782 5781 5779 5777 5775 5773 5772 5771 5769 5767 5766 5764 5763 5762 5761
5830 5828 5821 5809 5790 5776 5786 5803 5806 5814 5822 5829 5828 5823 5815 5812 5818 5818 5822 5826 5824 5820 5814 5809 5805 5801 5798 5794 5791 5789 5787 5785 5784 5782 5781 5779 5778 5776 5774 5772 5770 5769 5768 5766 5764 5763 5761 5760 5759
5830 5828 5812 5799 5788 5781 5793 5808 5813 5824 5829 5828 5822 5822 5817 5814 5820 5823 5828 5830 5825 5820 5816 5812 5808 5803 5800 5796 5792 5790 5787 5785 5784 5782 5780 5778 5776 5775 5773 5771 5768 5767 5765 5764 5763 5761 5760 5758 5757
5826 5817 5808 5793 5791 5799 5807 5815 5820 5821 5825 5828 5820 5812 5819 5828 5828 5830 5832 5830 5825 5821 5817 5813 5809 5804 5801 5798 5794 5790 5788 5785 5783 5782 5780 5778 5775 5773 5772 5770 5768 5766 5764 5763 5761 5760 5758 5757 5756
5821 5806 5792 5782 5791 5807 5820 5825 5825 5820 5821 5822 5818 5808 5812 5828 5833 5832 5831 5829 5824 5820 5817 5814 5809 5805 5801 5798 5795 5791 5788 5785 5782 5780 5779 5778 5775 5773 5771 5770 5768 5766 5764 5762 5760 5759 5757 5755 5754
5805 5796 5777 5774 5791 5810 5824 5832 5829 5823 5820 5821 5817 5809 5811 5826 5828 5829 5830 5827 5823 5819 5816 5813 5809 5805 5801 5798 5795 5792 5789 5786 5783 5781 5779 5778 5776 5774 5772 5770 5769 5767 5765 5763 5760 5758 5756 5755 5754
5797 5784 5777 5782 5787 5802 5821 5833 5829 5822 5818 5820 5823 5808 5811 5820 5827 5829 5827 5825 5821 5817 5814 5811 5808 5805 5801 5798 5794 5791 5789 5786 5784 5782 5780 5778 5776 5774 5772 5770 5769 5767 5765 5763 5760 5758 5756 5755 5754
5803 5784 5777 5777 5787 5800 5820 5831 5834 5827 5822 5831 5827 5810 5809 5822 5827 5826 5823 5820 5817 5815 5812 5809 5806 5804 5801 5798 5795 5792 5789 5786 5784 5783 5781 5778 5776 5774 5772 5770 5769 5767 5765 5762 5760 5758 5756 5754 5753
5804 5774 5765 5778 5789 5800 5817 5822 5832 5839 5829 5828 5830 5827 5829 5831 5826 5820 5816 5813 5812 5811 5810 5808 5805 5802 5799 5797 5794 5792 5789 5786 5784 5782 5780 5778 5775 5772 5771 5769 5768 5767 5765 5763 5760 5758 5756 5754 5753
5789 5766 5774 5790 5799 5802 5810 5817 5826 5828 5822 5821 5823 5828 5831 5826 5821 5816 5812 5810 5809 5808 5808 5806 5803 5801 5798 5795 5793 5790 5788 5786 5784 5781 5779 5776 5773 5771 5769 5767 5767 5767 5766 5764 5761 5759 5757 5755 5753
5791 5778 5786 5794 5802 5804 5805 5815 5829 5822 5815 5823 5823 5823 5825 5821 5818 5815 5813 5813 5811 5810 5807 5806 5802 5799 5797 5795 5792 5790 5787 5785 5783 5780 5778 5774 5771 5769 5768 5766 5766 5765 5765 5764 5762 5761 5758 5756 5754
5789 5791 5793 5796 5804 5803 5806 5815 5822 5823 5829 5841 5839 5833 5828 5821 5819 5818 5815 5814 5812 5809 5807 5805 5802 5798 5796 5793 5791 5789 5786 5784 5781 5779 5776 5773 5770 5769 5767 5766 5765 5764 5764 5763 5762 5760 5759 5757 5755
5784 5788 5795 5800 5802 5805 5808 5809 5815 5823 5836 5839 5835 5829 5826 5824 5821 5820 5818 5815 5812 5808 5806 5804 5800 5797 5793 5790 5788 5786 5784 5783 5781 5778 5775 5773 5770 5768 5767 5766 5765 5764 5763 5762 5761 5760 5759 5757 5755
5785 5789 5793 5797 5801 5806 5806 5807 5810 5819 5827 5826 5824 5822 5823 5821 5819 5816 5814 5811 5809 5807 5805 5803 5799 5795 5791 5787 5784 5783 5781 5779 5777 5776 5774 5772 5770 5768 5766 5765 5764 5763 5762 5761 5760 5759 5758 5756 5755
5783 5779 5783 5793 5798 5803 5801 5793 5801 5816 5817 5813 5814 5816 5816 5816 5815 5814 5814 5812 5810 5808 5805 5801 5797 5793 5789 5786 5783 5780 5778 5775 5774 5773 5772 5770 5769 5767 5766 5764 5762 5762 5760 5759 5758 5757 5756 5754 5753
5768 5760 5758 5775 5788 5794 5786 5772 5799 5809 5807 5802 5804 5807 5810 5812 5814 5814 5813 5812 5810 5806 5803 5799 5797 5791 5786 5783 5780 5777 5775 5773 5771 5770 5769 5768 5768 5766 5764 5762 5761 5761 5758 5756 5755 5754 5752 5751 5750
5739 5736 5744 5758 5778 5782 5776 5768 5790 5800 5800 5796 5798 5801 5803 5804 5807 5810 5810 5809 5805 5802 5798 5794 5793 5789 5784 5780 5777 5774 5772 5770 5768 5767 5765 5765 5764 5763 5761 5759 5758 5757 5755 5753 5751 5750 5748 5747 5747
5726 5732 5736 5742 5763 5769 5765 5764 5777 5789 5792 5792 5793 5793 5793 5795 5800 5799 5798 5798 5796 5793 5791 5787 5785 5783 5779 5775 5770 5767 5765 5763 5762 5761 5760 5759 5758 5758 5757 5755 5753 5751 5749 5747 5745 5744 5743 5742 5741
5734 5731 5728 5740 5760 5759 5754 5753 5763 5777 5779 5777 5776 5775 5775 5778 5781 5782 5783 5784 5784 5782 5780 5777 5774 5772 5769 5766 5762 5757 5755 5754 5753 5753 5752 5751 5751 5750 5750 5748 5746 5744 5741 5740 5738 5736 5736 5736 5735
5730 5725 5726 5738 5753 5751 5745 5743 5751 5759 5760 5761 5760 5759 5761 5764 5768 5771 5772 5773 5774 5773 5771 5769 5766 5763 5760 5757 5755 5752 5748 5746 5746 5744 5743 5742 5743 5742 5741 5739 5737 5735 5734 5733 5731 5730 5730 5731 5729
5726 5722 5723 5726 5737 5739 5737 5729 5732 5740 5747 5749 5749 5750 5751 5754 5756 5757 5758 5760 5762 5762 5761 5759 5757 5753 5750 5747 5743 5740 5738 5735 5733 5731 5731 5732 5733 5732 5731 5730 5729 5728 5727 5726 5725 5724 5723 5723 5724
5715 5728 5727 5725 5715 5705 5715 5698 5717 5717 5726 5732 5734 5736 5738 5741 5744 5746 5747 5748 5750 5753 5754 5751 5747 5743 5739 5735 5733 5731 5727 5723 5722 5720 5719 5721 5722 5722 5722 5722 5722 5721 5721 5720 5719 5718 5718 5717 5717
5721 5726 5720 5715 5707 5696 5698 5691 5693 5707 5709 5716 5720 5723 5726 5728 5731 5733 5736 5738 5739 5742 5743 5742 5737 5733 5730 5724 5722 5721 5717 5714 5712 5711 5710 5712 5713 5714 5714 5714 5714 5713 5713 5713 5712 5711 5711 5710 5710
5723 5710 5699 5687 5682 5673 5688 5680 5679 5692 5700 5705 5710 5712 5714 5716 5718 5720 5723 5725 5726 5728 5729 5729 5726 5722 5721 5716 5712 5710 5708 5705 5702 5701 5701 5703 5704 5706 5707 5707 5706 5706 5705 5705 5704 5703 5703 5703 5702
5706 5684 5662 5662 5655 5661 5679 5674 5677 5698 5701 5700 5699 5702 5704 5704 5705 5706 5708 5709 5711 5712 5713 5712 5713 5711 5709 5708 5705 5701 5698 5696 5693 5693 5693 5694 5696 5697 5698 5698 5698 5697 5697 5697 5696 5695 5695 5695 5694
5697 5682 5657 5647 5644 5654 5669 5667 5681 5698 5698 5695 5694 5694 5694 5693 5693 5692 5693 5694 5695 5696 5697 5698 5698 5699 5699 5698 5695 5692 5688 5685 5684 5684 5685 5686 5688 5689 5689 5689 5689 5688 5688 5688 5686 5686 5687 5687 5687
5689 5677 5674 5652 5649 5643 5652 5664 5681 5692 5689 5689 5687 5686 5684 5683 5681 5680 5678 5677 5677 5678 5680 5682 5684 5685 5686 5686 5685 5680 5677 5675 5675 5675 5676 5678 5679 5680 5679 5679 5679 5679 5679 5678 5677 5678 5679 5680 5680
5688 5674 5655 5646 5638 5632 5643 5651 5660 5678 5680 5683 5680 5677 5676 5673 5670 5668 5665 5663 5661 5660 5662 5664 5667 5671 5674 5675 5674 5672 5668 5667 5667 5667 5668 5670 5670 5670 5670 5669 5669 5669 5669 5669 5669 5670 5671 5672 5672
5676 5664 5651 5638 5636 5625 5624 5644 5670 5674 5677 5674 5673 5671 5667 5663 5660 5655 5652 5649 5647 5646 5646 5648 5650 5654 5659 5663 5663 5661 5659 5659 5659 5659 5659 5660 5662 5661 5660 5659 5659 5659 5659 5660 5661 5662 5663 5664 5664
5679 5667 5649 5642 5637 5623 5617 5638 5677 5671 5669 5665 5664 5663 5661 5656 5651 5645 5639 5635 5632 5630 5631 5634 5637 5641 5646 5651 5652 5651 5650 5651 5651 5651 5651 5652 5652 5652 5651 5650 5649 5649 5649 5651 5652 5654 5655 5655 5654